Time,TemperatureF,DewpointF,PressureIn,WindDirection,WindDirectionDegrees,WindSpeedMPH,WindSpeedGustMPH,Humidity,HourlyPrecipIn,Conditions,Clouds,dailyrainin,SoftwareType,DateUTC
2013-07-30 00:03:00,57.1,55.1,30.19,SSE,153,0.0,1.0,93,0.00,,,0.00,Wunderground v.1.15,2013-07-30 05:03:00,
2013-07-30 00:08:00,57.0,55.0,30.19,SSE,153,0.0,2.0,93,0.00,,,0.00,Wunderground v.1.15,2013-07-30 05:08:00,
2013-07-30 00:14:00,56.8,54.8,30.19,SSE,153,0.0,0.0,93,0.00,,,0.00,Wunderground v.1.15,2013-07-30 05:14:00,
2013-07-30 00:19:00,56.7,54.7,30.19,SSE,153,0.0,1.0,93,0.00,,,0.00,Wunderground v.1.15,2013-07-30 05:19:00,
2013-07-30 00:24:00,56.7,55.0,30.19,SSE,153,0.0,0.0,94,0.00,,,0.00,Wunderground v.1.15,2013-07-30 05:24:00,
2013-07-30 00:30:00,56.6,54.9,30.19,SSE,153,0.0,0.0,94,0.00,,,0.00,Wunderground v.1.15,2013-07-30 05:30:00,
2013-07-30 00:36:00,56.6,54.9,30.18,SSE,153,0.0,0.0,94,0.00,,,0.00,Wunderground v.1.15,2013-07-30 05:36:00,
2013-07-30 00:41:00,56.6,54.9,30.18,SSE,153,0.0,0.0,94,0.00,,,0.00,Wunderground v.1.15,2013-07-30 05:41:00,
2013-07-30 00:47:00,56.6,54.9,30.18,SSE,153,0.0,2.0,94,0.00,,,0.00,Wunderground v.1.15,2013-07-30 05:47:00,
2013-07-30 00:52:00,56.6,54.9,30.18,SSE,153,2.0,2.0,94,0.00,,,0.00,Wunderground v.1.15,2013-07-30 05:52:00,
2013-07-30 00:57:00,56.6,54.9,30.18,SSE,153,0.0,2.0,94,0.00,,,0.00,Wunderground v.1.15,2013-07-30 05:57:00,
2013-07-30 01:03:00,56.5,54.8,30.18,SSE,153,0.0,0.0,94,0.00,,,0.00,Wunderground v.1.15,2013-07-30 06:03:00,
2013-07-30 01:08:00,56.5,54.8,30.18,SSE,154,1.0,1.0,94,0.00,,,0.00,Wunderground v.1.15,2013-07-30 06:08:00,
2013-07-30 01:14:00,56.6,55.2,30.18,SSE,154,0.0,0.0,95,0.00,,,0.00,Wunderground v.1.15,2013-07-30 06:14:00,
2013-07-30 01:19:00,56.6,55.2,30.18,SSE,154,0.0,0.0,95,0.00,,,0.00,Wunderground v.1.15,2013-07-30 06:19:00,
2013-07-30 01:25:00,56.6,55.2,30.18,SSE,154,0.0,0.0,95,0.00,,,0.00,Wunderground v.1.15,2013-07-30 06:25:00,
2013-07-30 01:30:00,56.6,55.2,30.17,SSE,154,0.0,0.0,95,0.00,,,0.00,Wunderground v.1.15,2013-07-30 06:30:00,
2013-07-30 01:35:00,56.6,55.2,30.17,SSE,154,0.0,0.0,95,0.00,,,0.00,Wunderground v.1.15,2013-07-30 06:35:00,
2013-07-30 01:40:00,56.7,55.3,30.18,SSE,154,0.0,0.0,95,0.00,,,0.00,Wunderground v.1.15,2013-07-30 06:40:00,
2013-07-30 01:45:00,56.7,55.3,30.17,SSE,154,0.0,0.0,95,0.00,,,0.00,Wunderground v.1.15,2013-07-30 06:45:00,
2013-07-30 01:50:00,56.7,55.3,30.18,SSE,154,0.0,0.0,95,0.00,,,0.00,Wunderground v.1.15,2013-07-30 06:50:00,
2013-07-30 01:56:00,56.6,55.2,30.17,SSE,154,0.0,0.0,95,0.00,,,0.00,Wunderground v.1.15,2013-07-30 06:56:00,
2013-07-30 02:01:00,56.4,55.0,30.18,SSE,154,0.0,0.0,95,0.00,,,0.00,Wunderground v.1.15,2013-07-30 07:01:00,
2013-07-30 02:07:00,56.5,55.1,30.18,SSE,154,0.0,0.0,95,0.00,,,0.00,Wunderground v.1.15,2013-07-30 07:07:00,
2013-07-30 02:12:00,56.4,55.0,30.18,SSE,154,0.0,0.0,95,0.00,,,0.00,Wunderground v.1.15,2013-07-30 07:12:00,
2013-07-30 02:17:00,56.4,55.0,30.17,SSE,154,0.0,0.0,95,0.00,,,0.00,Wunderground v.1.15,2013-07-30 07:17:00,
2013-07-30 02:22:00,56.4,55.0,30.17,SSE,154,0.0,0.0,95,0.00,,,0.00,Wunderground v.1.15,2013-07-30 07:22:00,
2013-07-30 02:28:00,56.2,54.8,30.17,SSE,154,0.0,0.0,95,0.00,,,0.00,Wunderground v.1.15,2013-07-30 07:28:00,
2013-07-30 02:33:00,56.0,54.6,30.17,SSE,154,0.0,0.0,95,0.00,,,0.00,Wunderground v.1.15,2013-07-30 07:33:00,
2013-07-30 02:38:00,55.9,54.5,30.17,SSE,154,0.0,0.0,95,0.00,,,0.00,Wunderground v.1.15,2013-07-30 07:38:00,
2013-07-30 02:43:00,55.9,54.5,30.17,SSE,154,0.0,0.0,95,0.00,,,0.00,Wunderground v.1.15,2013-07-30 07:43:00,
2013-07-30 02:48:00,55.8,54.4,30.17,SSE,154,0.0,0.0,95,0.00,,,0.00,Wunderground v.1.15,2013-07-30 07:48:00,
2013-07-30 02:53:00,55.7,54.3,30.17,SSE,154,0.0,0.0,95,0.00,,,0.00,Wunderground v.1.15,2013-07-30 07:53:00,
2013-07-30 02:58:00,55.6,54.2,30.17,SSE,154,0.0,0.0,95,0.00,,,0.00,Wunderground v.1.15,2013-07-30 07:58:00,
2013-07-30 03:04:00,55.6,54.2,30.17,SSE,154,0.0,0.0,95,0.00,,,0.00,Wunderground v.1.15,2013-07-30 08:04:00,
2013-07-30 03:09:00,55.5,54.1,30.17,SSE,154,0.0,0.0,95,0.00,,,0.00,Wunderground v.1.15,2013-07-30 08:09:00,
2013-07-30 03:14:00,55.3,53.9,30.17,SSE,154,0.0,0.0,95,0.00,,,0.00,Wunderground v.1.15,2013-07-30 08:14:00,
2013-07-30 03:19:00,55.3,54.2,30.17,SSE,154,0.0,0.0,96,0.00,,,0.00,Wunderground v.1.15,2013-07-30 08:19:00,
2013-07-30 03:24:00,55.4,54.3,30.17,SSE,154,0.0,0.0,96,0.00,,,0.00,Wunderground v.1.15,2013-07-30 08:24:00,
2013-07-30 03:29:00,55.3,54.2,30.17,SSE,154,0.0,0.0,96,0.00,,,0.00,Wunderground v.1.15,2013-07-30 08:29:00,
2013-07-30 03:34:00,55.3,54.2,30.17,SSE,154,0.0,0.0,96,0.00,,,0.00,Wunderground v.1.15,2013-07-30 08:34:00,
2013-07-30 03:39:00,55.2,53.8,30.17,SSE,154,0.0,0.0,95,0.00,,,0.00,Wunderground v.1.15,2013-07-30 08:39:00,
2013-07-30 03:44:00,55.1,53.7,30.17,SSE,154,0.0,0.0,95,0.00,,,0.00,Wunderground v.1.15,2013-07-30 08:44:00,
2013-07-30 03:49:00,55.0,53.6,30.17,SSE,154,0.0,0.0,95,0.00,,,0.00,Wunderground v.1.15,2013-07-30 08:49:00,
2013-07-30 03:54:00,54.6,53.2,30.17,SSE,154,0.0,0.0,95,0.00,,,0.00,Wunderground v.1.15,2013-07-30 08:54:00,
2013-07-30 03:59:00,54.4,53.0,30.17,SSE,154,0.0,0.0,95,0.00,,,0.00,Wunderground v.1.15,2013-07-30 08:59:00,
2013-07-30 04:04:00,54.2,52.8,30.17,SSE,154,0.0,0.0,95,0.00,,,0.00,Wunderground v.1.15,2013-07-30 09:04:00,
2013-07-30 04:10:00,54.2,53.1,30.17,SSE,154,0.0,0.0,96,0.00,,,0.00,Wunderground v.1.15,2013-07-30 09:10:00,
2013-07-30 04:15:00,54.1,53.0,30.17,SSE,154,0.0,0.0,96,0.00,,,0.00,Wunderground v.1.15,2013-07-30 09:15:00,
2013-07-30 04:21:00,54.3,53.2,30.17,SSE,154,0.0,0.0,96,0.00,,,0.00,Wunderground v.1.15,2013-07-30 09:21:00,
2013-07-30 04:26:00,54.3,53.2,30.17,SSE,154,0.0,0.0,96,0.00,,,0.00,Wunderground v.1.15,2013-07-30 09:26:00,
2013-07-30 04:31:00,54.2,53.1,30.17,SSE,154,0.0,0.0,96,0.00,,,0.00,Wunderground v.1.15,2013-07-30 09:31:00,
2013-07-30 04:36:00,54.2,53.1,30.17,SSE,154,0.0,0.0,96,0.00,,,0.00,Wunderground v.1.15,2013-07-30 09:36:00,
2013-07-30 04:41:00,54.3,53.2,30.17,SSE,154,0.0,0.0,96,0.00,,,0.00,Wunderground v.1.15,2013-07-30 09:41:00,
2013-07-30 04:47:00,54.2,53.1,30.17,SSE,154,0.0,0.0,96,0.00,,,0.00,Wunderground v.1.15,2013-07-30 09:47:00,
2013-07-30 04:52:00,54.1,53.0,30.17,SSE,154,0.0,0.0,96,0.00,,,0.00,Wunderground v.1.15,2013-07-30 09:52:00,
2013-07-30 04:57:00,54.2,53.1,30.18,SSE,154,0.0,0.0,96,0.00,,,0.00,Wunderground v.1.15,2013-07-30 09:57:00,
2013-07-30 05:02:00,54.2,53.1,30.18,SSE,154,0.0,0.0,96,0.00,,,0.00,Wunderground v.1.15,2013-07-30 10:02:00,
2013-07-30 05:07:00,54.4,53.3,30.18,SSE,154,0.0,0.0,96,0.00,,,0.00,Wunderground v.1.15,2013-07-30 10:07:00,
2013-07-30 05:12:00,54.8,54.0,30.18,SSE,154,0.0,0.0,97,0.00,,,0.00,Wunderground v.1.15,2013-07-30 10:12:00,
2013-07-30 05:17:00,55.0,54.2,30.18,SSE,154,0.0,0.0,97,0.00,,,0.00,Wunderground v.1.15,2013-07-30 10:17:00,
2013-07-30 05:22:00,55.1,54.3,30.18,SSE,154,0.0,0.0,97,0.00,,,0.00,Wunderground v.1.15,2013-07-30 10:22:00,
2013-07-30 05:27:00,55.3,54.5,30.18,SSE,154,0.0,0.0,97,0.00,,,0.00,Wunderground v.1.15,2013-07-30 10:27:00,
2013-07-30 05:33:00,55.3,54.5,30.18,SSE,154,0.0,0.0,97,0.00,,,0.00,Wunderground v.1.15,2013-07-30 10:33:00,
2013-07-30 05:38:00,55.3,54.5,30.18,SSE,154,0.0,0.0,97,0.00,,,0.00,Wunderground v.1.15,2013-07-30 10:38:00,
2013-07-30 05:43:00,55.3,54.5,30.19,SSE,154,0.0,0.0,97,0.00,,,0.00,Wunderground v.1.15,2013-07-30 10:43:00,
2013-07-30 05:48:00,55.3,54.5,30.19,SSE,154,0.0,0.0,97,0.00,,,0.00,Wunderground v.1.15,2013-07-30 10:48:00,
2013-07-30 05:53:00,55.4,54.6,30.18,SSE,154,0.0,0.0,97,0.00,,,0.00,Wunderground v.1.15,2013-07-30 10:53:00,
2013-07-30 05:58:00,55.6,54.8,30.19,SSE,154,0.0,0.0,97,0.00,,,0.00,Wunderground v.1.15,2013-07-30 10:58:00,
2013-07-30 06:03:00,55.8,55.0,30.19,SSE,154,0.0,0.0,97,0.00,,,0.00,Wunderground v.1.15,2013-07-30 11:03:00,
2013-07-30 06:09:00,56.0,55.2,30.19,SSE,154,0.0,0.0,97,0.00,,,0.00,Wunderground v.1.15,2013-07-30 11:09:00,
2013-07-30 06:14:00,56.1,55.3,30.19,SSE,154,0.0,0.0,97,0.00,,,0.00,Wunderground v.1.15,2013-07-30 11:14:00,
2013-07-30 06:19:00,56.4,55.6,30.19,SSE,154,0.0,0.0,97,0.00,,,0.00,Wunderground v.1.15,2013-07-30 11:19:00,
2013-07-30 06:25:00,56.8,56.0,30.19,SSE,154,0.0,0.0,97,0.00,,,0.00,Wunderground v.1.15,2013-07-30 11:25:00,
2013-07-30 06:30:00,57.3,56.5,30.19,SSE,154,0.0,0.0,97,0.00,,,0.00,Wunderground v.1.15,2013-07-30 11:30:00,
2013-07-30 06:35:00,57.5,56.7,30.19,SSE,154,0.0,0.0,97,0.00,,,0.00,Wunderground v.1.15,2013-07-30 11:35:00,
2013-07-30 06:40:00,57.8,57.0,30.19,SSE,154,0.0,0.0,97,0.00,,,0.00,Wunderground v.1.15,2013-07-30 11:40:00,
2013-07-30 06:45:00,58.0,57.2,30.19,SSE,154,0.0,0.0,97,0.00,,,0.00,Wunderground v.1.15,2013-07-30 11:45:00,
2013-07-30 06:50:00,58.1,57.3,30.19,SSE,154,0.0,0.0,97,0.00,,,0.00,Wunderground v.1.15,2013-07-30 11:50:00,
2013-07-30 06:55:00,58.4,57.6,30.19,SSE,154,0.0,0.0,97,0.00,,,0.00,Wunderground v.1.15,2013-07-30 11:55:00,
2013-07-30 07:00:00,58.7,57.9,30.19,SSE,154,0.0,0.0,97,0.00,,,0.00,Wunderground v.1.15,2013-07-30 12:00:00,
2013-07-30 07:05:00,59.1,58.2,30.19,SSE,154,0.0,1.0,97,0.00,,,0.00,Wunderground v.1.15,2013-07-30 12:05:00,
2013-07-30 07:10:00,59.5,58.6,30.19,SSE,154,0.0,1.0,97,0.00,,,0.00,Wunderground v.1.15,2013-07-30 12:10:00,
2013-07-30 07:15:00,59.8,58.9,30.19,SSE,154,0.0,2.0,97,0.00,,,0.00,Wunderground v.1.15,2013-07-30 12:15:00,
2013-07-30 07:20:00,60.2,59.3,30.19,SSE,154,1.0,1.0,97,0.00,,,0.00,Wunderground v.1.15,2013-07-30 12:20:00,
2013-07-30 07:26:00,60.4,59.5,30.19,SSW,210,3.0,4.0,97,0.00,,,0.00,Wunderground v.1.15,2013-07-30 12:26:00,
2013-07-30 07:31:00,60.5,59.6,30.19,SSW,202,3.0,4.0,97,0.00,,,0.00,Wunderground v.1.15,2013-07-30 12:31:00,
2013-07-30 07:36:00,60.8,59.9,30.19,SSW,203,0.0,4.0,97,0.00,,,0.00,Wunderground v.1.15,2013-07-30 12:36:00,
2013-07-30 07:42:00,61.3,60.4,30.19,South,174,3.0,3.0,97,0.00,,,0.00,Wunderground v.1.15,2013-07-30 12:42:00,
2013-07-30 07:47:00,61.6,60.4,30.19,SSE,166,0.0,3.0,96,0.00,,,0.00,Wunderground v.1.15,2013-07-30 12:47:00,
2013-07-30 07:53:00,62.2,61.0,30.19,South,183,3.0,3.0,96,0.00,,,0.00,Wunderground v.1.15,2013-07-30 12:53:00,
2013-07-30 07:58:00,62.5,61.0,30.19,SSE,164,3.0,4.0,95,0.00,,,0.00,Wunderground v.1.15,2013-07-30 12:58:00,
2013-07-30 08:03:00,62.7,60.6,30.19,South,190,3.0,4.0,93,0.00,,,0.00,Wunderground v.1.15,2013-07-30 13:03:00,
2013-07-30 08:09:00,62.9,60.5,30.18,South,176,4.0,6.0,92,0.00,,,0.00,Wunderground v.1.15,2013-07-30 13:09:00,
2013-07-30 08:14:00,63.3,60.9,30.18,SSE,168,3.0,4.0,92,0.00,,,0.00,Wunderground v.1.15,2013-07-30 13:14:00,
2013-07-30 08:19:00,63.6,60.9,30.19,South,178,2.0,4.0,91,0.00,,,0.00,Wunderground v.1.15,2013-07-30 13:19:00,
2013-07-30 08:25:00,64.1,60.8,30.19,SSW,211,2.0,4.0,89,0.00,,,0.00,Wunderground v.1.15,2013-07-30 13:25:00,
2013-07-30 08:31:00,64.5,61.2,30.19,SSE,157,1.0,1.0,89,0.00,,,0.00,Wunderground v.1.15,2013-07-30 13:31:00,
2013-07-30 08:36:00,64.9,61.3,30.19,South,173,2.0,4.0,88,0.00,,,0.00,Wunderground v.1.15,2013-07-30 13:36:00,
2013-07-30 08:41:00,65.2,60.9,30.19,SSE,165,0.0,4.0,86,0.00,,,0.00,Wunderground v.1.15,2013-07-30 13:41:00,
2013-07-30 08:46:00,65.5,60.9,30.19,SE,145,1.0,5.0,85,0.00,,,0.00,Wunderground v.1.15,2013-07-30 13:46:00,
2013-07-30 08:51:00,65.8,61.5,30.19,SSW,196,2.0,4.0,86,0.00,,,0.00,Wunderground v.1.15,2013-07-30 13:51:00,
2013-07-30 08:57:00,66.2,61.6,30.19,SSE,164,3.0,5.0,85,0.00,,,0.00,Wunderground v.1.15,2013-07-30 13:57:00,
2013-07-30 09:02:00,66.5,61.2,30.19,SSW,199,1.0,5.0,83,0.00,,,0.00,Wunderground v.1.15,2013-07-30 14:02:00,
2013-07-30 09:07:00,66.7,61.0,30.19,SSE,160,2.0,5.0,82,0.00,,,0.00,Wunderground v.1.15,2013-07-30 14:07:00,
2013-07-30 09:12:00,66.9,61.6,30.18,SSW,207,2.0,4.0,83,0.00,,,0.00,Wunderground v.1.15,2013-07-30 14:12:00,
2013-07-30 09:17:00,67.2,62.2,30.18,South,180,2.0,5.0,84,0.00,,,0.00,Wunderground v.1.15,2013-07-30 14:17:00,
2013-07-30 09:22:00,67.5,61.5,30.18,South,180,2.0,4.0,81,0.00,,,0.00,Wunderground v.1.15,2013-07-30 14:22:00,
2013-07-30 09:27:00,67.6,61.2,30.18,SSE,159,4.0,7.0,80,0.00,,,0.00,Wunderground v.1.15,2013-07-30 14:27:00,
2013-07-30 09:32:00,67.6,61.2,30.18,South,173,3.0,6.0,80,0.00,,,0.00,Wunderground v.1.15,2013-07-30 14:32:00,
2013-07-30 09:37:00,67.6,60.9,30.18,SSW,207,7.0,10.0,79,0.00,,,0.00,Wunderground v.1.15,2013-07-30 14:37:00,
2013-07-30 09:43:00,67.8,61.0,30.17,SSE,157,3.0,7.0,79,0.00,,,0.00,Wunderground v.1.15,2013-07-30 14:43:00,
2013-07-30 09:48:00,68.0,61.2,30.18,South,181,3.0,7.0,79,0.00,,,0.00,Wunderground v.1.15,2013-07-30 14:48:00,
2013-07-30 09:53:00,68.2,61.4,30.18,SSW,192,3.0,7.0,79,0.00,,,0.00,Wunderground v.1.15,2013-07-30 14:53:00,
2013-07-30 09:58:00,68.3,61.5,30.18,SSW,202,5.0,7.0,79,0.00,,,0.00,Wunderground v.1.15,2013-07-30 14:58:00,
2013-07-30 10:03:00,68.4,62.0,30.18,SSE,166,4.0,6.0,80,0.00,,,0.00,Wunderground v.1.15,2013-07-30 15:03:00,
2013-07-30 10:09:00,68.5,61.7,30.17,SE,143,4.0,6.0,79,0.00,,,0.00,Wunderground v.1.15,2013-07-30 15:09:00,
2013-07-30 10:14:00,68.5,61.0,30.17,South,175,3.0,9.0,77,0.00,,,0.00,Wunderground v.1.15,2013-07-30 15:14:00,
2013-07-30 10:19:00,68.6,61.5,30.17,SSE,153,3.0,10.0,78,0.00,,,0.00,Wunderground v.1.15,2013-07-30 15:19:00,
2013-07-30 10:24:00,68.9,62.5,30.17,SSE,157,4.0,7.0,80,0.00,,,0.00,Wunderground v.1.15,2013-07-30 15:24:00,
2013-07-30 10:29:00,69.2,62.0,30.17,SSE,156,6.0,7.0,78,0.00,,,0.00,Wunderground v.1.15,2013-07-30 15:29:00,
2013-07-30 10:34:00,69.2,62.0,30.17,South,184,2.0,7.0,78,0.00,,,0.00,Wunderground v.1.15,2013-07-30 15:34:00,
2013-07-30 10:39:00,69.6,62.4,30.17,SSW,209,5.0,7.0,78,0.00,,,0.00,Wunderground v.1.15,2013-07-30 15:39:00,
2013-07-30 10:44:00,69.8,62.6,30.17,South,188,3.0,6.0,78,0.00,,,0.00,Wunderground v.1.15,2013-07-30 15:44:00,
2013-07-30 10:49:00,70.2,63.0,30.17,South,169,5.0,7.0,78,0.00,,,0.00,Wunderground v.1.15,2013-07-30 15:49:00,
2013-07-30 10:54:00,70.4,62.8,30.17,SW,215,3.0,9.0,77,0.00,,,0.00,Wunderground v.1.15,2013-07-30 15:54:00,
2013-07-30 10:59:00,70.7,62.8,30.17,South,183,3.0,9.0,76,0.00,,,0.00,Wunderground v.1.15,2013-07-30 15:59:00,
2013-07-30 11:04:00,71.0,63.1,30.17,SSW,211,1.0,6.0,76,0.00,,,0.00,Wunderground v.1.15,2013-07-30 16:04:00,
2013-07-30 11:09:00,71.2,62.9,30.17,SW,225,4.0,6.0,75,0.00,,,0.00,Wunderground v.1.15,2013-07-30 16:09:00,
2013-07-30 11:15:00,71.5,63.9,30.17,South,184,4.0,7.0,77,0.00,,,0.00,Wunderground v.1.15,2013-07-30 16:15:00,
2013-07-30 11:20:00,72.1,64.1,30.17,SSE,155,5.0,5.0,76,0.00,,,0.00,Wunderground v.1.15,2013-07-30 16:20:00,
2013-07-30 11:25:00,72.3,63.2,30.17,SSW,192,3.0,7.0,73,0.00,,,0.00,Wunderground v.1.15,2013-07-30 16:25:00,
2013-07-30 11:30:00,72.3,63.5,30.17,SSE,161,2.0,4.0,74,0.00,,,0.00,Wunderground v.1.15,2013-07-30 16:30:00,
2013-07-30 11:36:00,72.3,62.8,30.17,SSW,210,3.0,7.0,72,0.00,,,0.00,Wunderground v.1.15,2013-07-30 16:36:00,
2013-07-30 11:41:00,72.3,63.5,30.16,South,178,3.0,6.0,74,0.00,,,0.00,Wunderground v.1.15,2013-07-30 16:41:00,
2013-07-30 11:46:00,72.4,63.3,30.16,SSW,202,4.0,9.0,73,0.00,,,0.00,Wunderground v.1.15,2013-07-30 16:46:00,
2013-07-30 11:51:00,72.5,64.1,30.16,South,182,0.0,4.0,75,0.00,,,0.00,Wunderground v.1.15,2013-07-30 16:51:00,
2013-07-30 11:56:00,72.7,63.9,30.16,SW,230,4.0,7.0,74,0.00,,,0.00,Wunderground v.1.15,2013-07-30 16:56:00,
2013-07-30 12:01:00,72.7,63.9,30.16,SSW,207,4.0,5.0,74,0.00,,,0.00,Wunderground v.1.15,2013-07-30 17:01:00,
2013-07-30 12:06:00,72.8,64.0,30.16,South,186,3.0,6.0,74,0.00,,,0.00,Wunderground v.1.15,2013-07-30 17:06:00,
2013-07-30 12:12:00,72.7,63.1,30.16,SSE,162,2.0,5.0,72,0.00,,,0.00,Wunderground v.1.15,2013-07-30 17:12:00,
2013-07-30 12:17:00,72.7,63.9,30.16,South,184,6.0,6.0,74,0.00,,,0.00,Wunderground v.1.15,2013-07-30 17:17:00,
2013-07-30 12:22:00,72.8,63.2,30.16,SSE,165,2.0,5.0,72,0.00,,,0.00,Wunderground v.1.15,2013-07-30 17:22:00,
2013-07-30 12:27:00,72.8,63.2,30.16,SW,222,2.0,9.0,72,0.00,,,0.00,Wunderground v.1.15,2013-07-30 17:27:00,
2013-07-30 12:33:00,72.8,63.2,30.15,South,182,1.0,4.0,72,0.00,,,0.00,Wunderground v.1.15,2013-07-30 17:33:00,
2013-07-30 12:38:00,72.8,63.2,30.15,South,187,2.0,4.0,72,0.00,,,0.00,Wunderground v.1.15,2013-07-30 17:38:00,
2013-07-30 12:43:00,73.1,63.9,30.15,SSE,157,2.0,4.0,73,0.00,,,0.00,Wunderground v.1.15,2013-07-30 17:43:00,
2013-07-30 12:48:00,73.5,63.9,30.15,SSW,204,3.0,5.0,72,0.00,,,0.00,Wunderground v.1.15,2013-07-30 17:48:00,
2013-07-30 12:53:00,73.8,62.6,30.14,SSE,148,3.0,5.0,68,0.00,,,0.00,Wunderground v.1.15,2013-07-30 17:53:00,
2013-07-30 12:58:00,73.8,63.4,30.14,South,174,4.0,9.0,70,0.00,,,0.00,Wunderground v.1.15,2013-07-30 17:58:00,
2013-07-30 13:03:00,73.6,63.6,30.14,SW,219,2.0,4.0,71,0.00,,,0.00,Wunderground v.1.15,2013-07-30 18:03:00,
2013-07-30 13:08:00,73.3,62.9,30.13,SSE,155,3.0,11.0,70,0.00,,,0.00,Wunderground v.1.15,2013-07-30 18:08:00,
2013-07-30 13:13:00,73.6,63.6,30.13,SSW,205,4.0,4.0,71,0.00,,,0.00,Wunderground v.1.15,2013-07-30 18:13:00,
2013-07-30 13:18:00,73.8,62.6,30.13,SSW,202,5.0,9.0,68,0.00,,,0.00,Wunderground v.1.15,2013-07-30 18:18:00,
2013-07-30 13:23:00,74.5,63.7,30.13,South,190,2.0,7.0,69,0.00,,,0.00,Wunderground v.1.15,2013-07-30 18:23:00,
2013-07-30 13:28:00,74.7,62.1,30.13,SSE,161,3.0,7.0,65,0.00,,,0.00,Wunderground v.1.15,2013-07-30 18:28:00,
2013-07-30 13:33:00,74.3,63.1,30.13,ESE,115,5.0,6.0,68,0.00,,,0.00,Wunderground v.1.15,2013-07-30 18:33:00,
2013-07-30 13:38:00,74.4,64.0,30.13,SSW,194,3.0,11.0,70,0.00,,,0.00,Wunderground v.1.15,2013-07-30 18:38:00,
2013-07-30 13:43:00,75.0,62.9,30.12,SSW,201,3.0,10.0,66,0.00,,,0.00,Wunderground v.1.15,2013-07-30 18:43:00,
2013-07-30 13:48:00,75.1,63.0,30.12,South,186,4.0,10.0,66,0.00,,,0.00,Wunderground v.1.15,2013-07-30 18:48:00,
2013-07-30 13:53:00,74.4,62.3,30.12,South,174,3.0,9.0,66,0.00,,,0.00,Wunderground v.1.15,2013-07-30 18:53:00,
2013-07-30 13:58:00,74.2,63.4,30.12,SSW,213,5.0,9.0,69,0.00,,,0.00,Wunderground v.1.15,2013-07-30 18:58:00,
2013-07-30 14:04:00,74.3,63.5,30.13,SSW,209,3.0,7.0,69,0.00,,,0.00,Wunderground v.1.15,2013-07-30 19:04:00,
2013-07-30 14:09:00,74.3,63.1,30.12,SSW,197,6.0,9.0,68,0.00,,,0.00,Wunderground v.1.15,2013-07-30 19:09:00,
2013-07-30 14:14:00,74.5,62.8,30.12,SSW,204,6.0,9.0,67,0.00,,,0.00,Wunderground v.1.15,2013-07-30 19:14:00,
2013-07-30 14:19:00,74.5,62.8,30.11,SSW,194,5.0,9.0,67,0.00,,,0.00,Wunderground v.1.15,2013-07-30 19:19:00,
2013-07-30 14:24:00,74.4,63.6,30.12,SSW,198,2.0,5.0,69,0.00,,,0.00,Wunderground v.1.15,2013-07-30 19:24:00,
2013-07-30 14:30:00,74.2,63.4,30.11,SW,231,4.0,4.0,69,0.00,,,0.00,Wunderground v.1.15,2013-07-30 19:30:00,
2013-07-30 14:35:00,73.8,63.0,30.11,South,180,3.0,9.0,69,0.00,,,0.00,Wunderground v.1.15,2013-07-30 19:35:00,
2013-07-30 14:40:00,73.6,63.6,30.11,SSW,203,3.0,3.0,71,0.00,,,0.00,Wunderground v.1.15,2013-07-30 19:40:00,
2013-07-30 14:45:00,73.4,63.0,30.11,South,178,2.0,6.0,70,0.00,,,0.00,Wunderground v.1.15,2013-07-30 19:45:00,
2013-07-30 14:50:00,73.3,63.7,30.10,SW,219,4.0,5.0,72,0.00,,,0.00,Wunderground v.1.15,2013-07-30 19:50:00,
2013-07-30 14:56:00,72.9,62.9,30.11,South,189,3.0,6.0,71,0.00,,,0.00,Wunderground v.1.15,2013-07-30 19:56:00,
2013-07-30 15:01:00,72.8,64.0,30.10,SW,217,4.0,4.0,74,0.00,,,0.00,Wunderground v.1.15,2013-07-30 20:01:00,
2013-07-30 15:06:00,72.6,63.8,30.10,SSW,203,4.0,5.0,74,0.00,,,0.00,Wunderground v.1.15,2013-07-30 20:06:00,
2013-07-30 15:12:00,72.3,62.8,30.10,SSW,194,1.0,4.0,72,0.00,,,0.00,Wunderground v.1.15,2013-07-30 20:12:00,
2013-07-30 15:17:00,72.4,62.9,30.10,SSW,202,4.0,10.0,72,0.00,,,0.00,Wunderground v.1.15,2013-07-30 20:17:00,
2013-07-30 15:22:00,72.6,63.1,30.10,SSW,211,6.0,7.0,72,0.00,,,0.00,Wunderground v.1.15,2013-07-30 20:22:00,
2013-07-30 15:26:00,72.7,63.5,30.10,SW,218,4.0,7.0,73,0.00,,,0.00,Wunderground v.1.15,2013-07-30 20:26:00,
2013-07-30 15:31:00,72.5,62.6,30.10,South,188,6.0,6.0,71,0.00,,,0.00,Wunderground v.1.15,2013-07-30 20:31:00,
2013-07-30 15:37:00,72.2,62.3,30.10,South,191,3.0,6.0,71,0.00,,,0.00,Wunderground v.1.15,2013-07-30 20:37:00,
2013-07-30 15:42:00,72.2,62.7,30.10,SSW,192,3.0,4.0,72,0.00,,,0.00,Wunderground v.1.15,2013-07-30 20:42:00,
2013-07-30 15:47:00,72.2,63.1,30.10,South,170,0.0,5.0,73,0.00,,,0.00,Wunderground v.1.15,2013-07-30 20:47:00,
2013-07-30 15:52:00,72.2,63.4,30.10,SSW,206,5.0,6.0,74,0.00,,,0.00,Wunderground v.1.15,2013-07-30 20:52:00,
2013-07-30 15:57:00,72.0,62.9,30.10,SW,233,0.0,7.0,73,0.00,,,0.00,Wunderground v.1.15,2013-07-30 20:57:00,
2013-07-30 16:02:00,71.8,63.1,30.10,South,183,5.0,5.0,74,0.00,,,0.00,Wunderground v.1.15,2013-07-30 21:02:00,
2013-07-30 16:07:00,71.6,62.5,30.10,South,184,3.0,7.0,73,0.00,,,0.00,Wunderground v.1.15,2013-07-30 21:07:00,
2013-07-30 16:13:00,71.4,61.9,30.10,SSE,158,1.0,5.0,72,0.00,,,0.00,Wunderground v.1.15,2013-07-30 21:13:00,
2013-07-30 16:19:00,71.2,62.5,30.10,SSE,165,2.0,6.0,74,0.00,,,0.00,Wunderground v.1.15,2013-07-30 21:19:00,
2013-07-30 16:24:00,71.1,62.4,30.10,SSW,199,2.0,6.0,74,0.00,,,0.00,Wunderground v.1.15,2013-07-30 21:24:00,
2013-07-30 16:29:00,71.0,62.3,30.10,SSW,204,2.0,6.0,74,0.00,,,0.00,Wunderground v.1.15,2013-07-30 21:29:00,
2013-07-30 16:34:00,71.1,63.5,30.10,South,182,1.0,3.0,77,0.00,,,0.00,Wunderground v.1.15,2013-07-30 21:34:00,
2013-07-30 16:39:00,71.0,63.1,30.10,South,184,1.0,3.0,76,0.00,,,0.00,Wunderground v.1.15,2013-07-30 21:39:00,
2013-07-30 16:44:00,70.8,62.9,30.10,South,189,3.0,3.0,76,0.00,,,0.00,Wunderground v.1.15,2013-07-30 21:44:00,
2013-07-30 16:49:00,70.6,62.7,30.10,SSW,207,2.0,4.0,76,0.00,,,0.00,Wunderground v.1.15,2013-07-30 21:49:00,
2013-07-30 16:55:00,70.4,62.8,30.10,SSW,202,0.0,3.0,77,0.00,,,0.00,Wunderground v.1.15,2013-07-30 21:55:00,
2013-07-30 17:00:00,70.3,62.7,30.10,SSW,204,4.0,4.0,77,0.00,,,0.00,Wunderground v.1.15,2013-07-30 22:00:00,
2013-07-30 17:05:00,70.2,62.3,30.11,SSW,202,5.0,8.0,76,0.00,,,0.00,Wunderground v.1.15,2013-07-30 22:05:00,
2013-07-30 17:10:00,70.1,62.9,30.11,South,190,7.0,7.0,78,0.00,,,0.00,Wunderground v.1.15,2013-07-30 22:10:00,
2013-07-30 17:15:00,69.9,63.1,30.11,SSW,201,8.0,8.0,79,0.00,,,0.00,Wunderground v.1.15,2013-07-30 22:15:00,
2013-07-30 17:20:00,69.8,63.0,30.11,SSW,192,5.0,5.0,79,0.00,,,0.00,Wunderground v.1.15,2013-07-30 22:20:00,
2013-07-30 17:25:00,69.6,62.8,30.11,SSW,202,6.0,9.0,79,0.00,,,0.00,Wunderground v.1.15,2013-07-30 22:25:00,
2013-07-30 17:30:00,69.4,62.6,30.11,South,190,5.0,9.0,79,0.00,,,0.00,Wunderground v.1.15,2013-07-30 22:30:00,
2013-07-30 17:35:00,69.2,62.4,30.11,SW,236,7.0,10.0,79,0.00,,,0.00,Wunderground v.1.15,2013-07-30 22:35:00,
2013-07-30 17:40:00,68.6,62.9,30.11,SW,219,5.0,7.0,82,0.00,,,0.00,Wunderground v.1.15,2013-07-30 22:40:00,
2013-07-30 17:45:00,67.6,63.3,30.11,SW,225,4.0,7.0,86,0.00,,,0.00,Wunderground v.1.15,2013-07-30 22:45:00,
2013-07-30 17:50:00,66.4,62.7,30.11,SSW,198,7.0,10.0,88,0.00,,,0.00,Wunderground v.1.15,2013-07-30 22:50:00,
2013-07-30 17:55:00,65.4,62.4,30.11,SW,215,5.0,11.0,90,0.00,,,0.01,Wunderground v.1.15,2013-07-30 22:55:00,
2013-07-30 18:00:00,64.9,62.2,30.12,SSW,213,4.0,5.0,91,0.00,,,0.01,Wunderground v.1.15,2013-07-30 23:00:00,
2013-07-30 18:05:00,64.7,62.3,30.11,South,178,2.0,6.0,92,0.06,,,0.02,Wunderground v.1.15,2013-07-30 23:05:00,
2013-07-30 18:11:00,64.7,62.6,30.11,SSW,197,3.0,5.0,93,0.13,,,0.03,Wunderground v.1.15,2013-07-30 23:11:00,
2013-07-30 18:16:00,64.7,62.9,30.11,South,173,2.0,5.0,94,0.08,,,0.04,Wunderground v.1.15,2013-07-30 23:16:00,
2013-07-30 18:22:00,64.7,62.9,30.11,SSW,200,3.0,3.0,94,0.10,,,0.05,Wunderground v.1.15,2013-07-30 23:22:00,
2013-07-30 18:27:00,64.6,62.8,30.11,South,180,1.0,3.0,94,0.10,,,0.05,Wunderground v.1.15,2013-07-30 23:27:00,
2013-07-30 18:32:00,64.7,62.9,30.11,South,177,1.0,4.0,94,0.06,,,0.06,Wunderground v.1.15,2013-07-30 23:32:00,
2013-07-30 18:37:00,64.7,63.2,30.11,South,190,2.0,4.0,95,0.19,,,0.07,Wunderground v.1.15,2013-07-30 23:37:00,
2013-07-30 18:42:00,64.6,63.1,30.11,SSW,192,2.0,4.0,95,0.08,,,0.08,Wunderground v.1.15,2013-07-30 23:42:00,
2013-07-30 18:47:00,64.5,63.0,30.11,SSE,165,1.0,4.0,95,0.11,,,0.08,Wunderground v.1.15,2013-07-30 23:47:00,
2013-07-30 18:52:00,64.5,63.0,30.11,SSE,165,0.0,3.0,95,0.21,,,0.10,Wunderground v.1.15,2013-07-30 23:52:00,
2013-07-30 18:57:00,64.4,62.9,30.11,SSE,165,0.0,3.0,95,0.10,,,0.11,Wunderground v.1.15,2013-07-30 23:57:00,
2013-07-30 19:02:00,64.4,62.9,30.11,SSE,165,1.0,2.0,95,0.08,,,0.11,Wunderground v.1.15,2013-07-31 00:02:00,
2013-07-30 19:07:00,64.4,62.9,30.11,SSE,165,0.0,2.0,95,0.05,,,0.11,Wunderground v.1.15,2013-07-31 00:07:00,
2013-07-30 19:13:00,64.4,62.9,30.11,SSE,165,0.0,2.0,95,0.05,,,0.12,Wunderground v.1.15,2013-07-31 00:13:00,
2013-07-30 19:19:00,64.4,63.2,30.11,SSE,165,0.0,2.0,96,0.06,,,0.13,Wunderground v.1.15,2013-07-31 00:19:00,
2013-07-30 19:24:00,64.5,63.3,30.11,SSE,165,0.0,1.0,96,0.28,,,0.15,Wunderground v.1.15,2013-07-31 00:24:00,
2013-07-30 19:29:00,64.4,63.2,30.11,SSE,165,0.0,1.0,96,0.16,,,0.16,Wunderground v.1.15,2013-07-31 00:29:00,
2013-07-30 19:34:00,64.3,63.1,30.11,SSE,165,0.0,2.0,96,0.20,,,0.18,Wunderground v.1.15,2013-07-31 00:34:00,
2013-07-30 19:39:00,64.3,63.1,30.11,SSE,165,0.0,2.0,96,0.08,,,0.18,Wunderground v.1.15,2013-07-31 00:39:00,
2013-07-30 19:44:00,64.3,63.1,30.11,East,97,0.0,1.0,96,0.05,,,0.19,Wunderground v.1.15,2013-07-31 00:44:00,
2013-07-30 19:49:00,64.3,63.1,30.11,East,97,0.0,1.0,96,0.05,,,0.19,Wunderground v.1.15,2013-07-31 00:49:00,
2013-07-30 19:54:00,64.2,63.0,30.11,East,97,0.0,1.0,96,0.18,,,0.21,Wunderground v.1.15,2013-07-31 00:54:00,
2013-07-30 19:59:00,64.2,63.0,30.11,East,97,0.0,1.0,96,0.17,,,0.22,Wunderground v.1.15,2013-07-31 00:59:00,
2013-07-30 20:04:00,64.2,63.0,30.10,East,89,0.0,2.0,96,0.07,,,0.22,Wunderground v.1.15,2013-07-31 01:04:00,
2013-07-30 20:10:00,64.1,62.9,30.11,SE,144,0.0,1.0,96,0.07,,,0.23,Wunderground v.1.15,2013-07-31 01:10:00,
2013-07-30 20:15:00,64.0,62.8,30.11,SE,142,0.0,3.0,96,0.06,,,0.23,Wunderground v.1.15,2013-07-31 01:15:00,
2013-07-30 20:21:00,64.1,62.9,30.11,SE,142,0.0,0.0,96,0.05,,,0.24,Wunderground v.1.15,2013-07-31 01:21:00,
2013-07-30 20:26:00,64.1,62.9,30.10,SE,142,0.0,2.0,96,0.08,,,0.25,Wunderground v.1.15,2013-07-31 01:26:00,
2013-07-30 20:31:00,64.0,62.8,30.11,SE,126,0.0,2.0,96,0.14,,,0.26,Wunderground v.1.15,2013-07-31 01:31:00,
2013-07-30 20:37:00,64.0,62.8,30.11,ESE,123,0.0,3.0,96,0.08,,,0.27,Wunderground v.1.15,2013-07-31 01:37:00,
2013-07-30 20:42:00,64.0,62.8,30.11,SE,124,0.0,2.0,96,0.08,,,0.27,Wunderground v.1.15,2013-07-31 01:42:00,
2013-07-30 20:47:00,64.0,62.8,30.11,SE,124,0.0,2.0,96,0.08,,,0.28,Wunderground v.1.15,2013-07-31 01:47:00,
2013-07-30 20:52:00,64.0,62.8,30.11,SE,124,0.0,0.0,96,0.32,,,0.30,Wunderground v.1.15,2013-07-31 01:52:00,
2013-07-30 20:57:00,63.9,62.7,30.11,ESE,114,1.0,2.0,96,0.25,,,0.31,Wunderground v.1.15,2013-07-31 01:57:00,
2013-07-30 21:02:00,63.9,62.7,30.11,SSE,166,2.0,3.0,96,0.24,,,0.34,Wunderground v.1.15,2013-07-31 02:02:00,
2013-07-30 21:08:00,63.8,62.6,30.11,SSE,167,0.0,4.0,96,0.13,,,0.35,Wunderground v.1.15,2013-07-31 02:08:00,
2013-07-30 21:13:00,63.7,62.5,30.11,SSE,163,0.0,3.0,96,0.14,,,0.36,Wunderground v.1.15,2013-07-31 02:13:00,
2013-07-30 21:18:00,63.6,62.4,30.11,SSE,161,0.0,3.0,96,0.09,,,0.37,Wunderground v.1.15,2013-07-31 02:18:00,
2013-07-30 21:24:00,63.6,62.4,30.11,SE,137,0.0,3.0,96,0.07,,,0.37,Wunderground v.1.15,2013-07-31 02:24:00,
2013-07-30 21:29:00,63.5,62.3,30.10,SSE,155,1.0,3.0,96,0.06,,,0.38,Wunderground v.1.15,2013-07-31 02:29:00,
2013-07-30 21:34:00,63.5,62.3,30.10,SSE,155,0.0,2.0,96,0.10,,,0.39,Wunderground v.1.15,2013-07-31 02:34:00,
2013-07-30 21:39:00,63.4,62.2,30.10,SSE,158,0.0,3.0,96,0.09,,,0.40,Wunderground v.1.15,2013-07-31 02:39:00,
2013-07-30 21:45:00,63.4,62.2,30.11,SSE,158,1.0,1.0,96,0.08,,,0.40,Wunderground v.1.15,2013-07-31 02:45:00,
2013-07-30 21:51:00,63.3,62.1,30.11,SSE,166,3.0,3.0,96,0.04,,,0.40,Wunderground v.1.15,2013-07-31 02:51:00,
2013-07-30 21:56:00,63.2,62.0,30.11,South,170,0.0,3.0,96,0.00,,,0.40,Wunderground v.1.15,2013-07-31 02:56:00,
2013-07-30 22:01:00,63.1,62.2,30.11,South,170,0.0,1.0,97,0.00,,,0.40,Wunderground v.1.15,2013-07-31 03:01:00,
2013-07-30 22:06:00,63.0,61.8,30.11,SSE,148,3.0,4.0,96,0.00,,,0.40,Wunderground v.1.15,2013-07-31 03:06:00,
2013-07-30 22:11:00,62.9,61.7,30.10,SSE,163,1.0,3.0,96,0.00,,,0.41,Wunderground v.1.15,2013-07-31 03:11:00,
2013-07-30 22:16:00,62.7,61.5,30.10,SSE,154,1.0,4.0,96,0.00,,,0.41,Wunderground v.1.15,2013-07-31 03:16:00,
2013-07-30 22:21:00,62.6,61.7,30.10,SSE,167,2.0,2.0,97,0.00,,,0.41,Wunderground v.1.15,2013-07-31 03:21:00,
2013-07-30 22:26:00,62.5,61.6,30.10,SSE,165,1.0,5.0,97,0.00,,,0.41,Wunderground v.1.15,2013-07-31 03:26:00,
2013-07-30 22:31:00,62.5,61.6,30.10,SSE,157,0.0,1.0,97,0.00,,,0.41,Wunderground v.1.15,2013-07-31 03:31:00,
2013-07-30 22:37:00,62.5,61.6,30.10,SSE,157,0.0,3.0,97,0.00,,,0.41,Wunderground v.1.15,2013-07-31 03:37:00,
2013-07-30 22:42:00,62.5,61.6,30.10,SSE,157,0.0,2.0,97,0.00,,,0.41,Wunderground v.1.15,2013-07-31 03:42:00,
2013-07-30 22:47:00,62.5,61.6,30.10,SSE,157,0.0,2.0,97,0.00,,,0.41,Wunderground v.1.15,2013-07-31 03:47:00,
2013-07-30 22:52:00,62.5,61.6,30.10,SSE,157,1.0,1.0,97,0.00,,,0.42,Wunderground v.1.15,2013-07-31 03:52:00,
2013-07-30 22:58:00,62.5,61.6,30.10,ESE,107,0.0,2.0,97,0.00,,,0.42,Wunderground v.1.15,2013-07-31 03:58:00,
2013-07-30 23:01:00,62.5,61.6,30.10,ESE,107,0.0,0.0,97,0.00,,,0.42,Wunderground v.1.15,2013-07-31 04:01:00,
2013-07-30 23:02:00,62.5,61.6,30.10,ESE,107,0.0,0.0,97,0.00,,,0.42,Wunderground v.1.15,2013-07-31 04:02:00,
2013-07-30 23:07:00,62.5,61.6,30.10,SE,124,0.0,3.0,97,0.00,,,0.42,Wunderground v.1.15,2013-07-31 04:07:00,
2013-07-30 23:13:00,62.5,61.6,30.10,SE,126,0.0,2.0,97,0.00,,,0.42,Wunderground v.1.15,2013-07-31 04:13:00,
2013-07-30 23:18:00,62.5,61.6,30.10,ESE,115,0.0,2.0,97,0.00,,,0.42,Wunderground v.1.15,2013-07-31 04:18:00,
2013-07-30 23:23:00,62.5,61.6,30.10,ESE,115,0.0,1.0,97,0.00,,,0.43,Wunderground v.1.15,2013-07-31 04:23:00,
2013-07-30 23:29:00,62.5,61.6,30.10,ESE,113,0.0,2.0,97,0.00,,,0.43,Wunderground v.1.15,2013-07-31 04:29:00,
2013-07-30 23:34:00,62.5,61.6,30.10,ESE,113,0.0,2.0,97,0.00,,,0.43,Wunderground v.1.15,2013-07-31 04:34:00,
2013-07-30 23:40:00,62.5,61.6,30.10,ESE,113,0.0,0.0,97,0.00,,,0.43,Wunderground v.1.15,2013-07-31 04:40:00,
2013-07-30 23:45:00,62.5,61.6,30.10,ESE,113,0.0,1.0,97,0.00,,,0.44,Wunderground v.1.15,2013-07-31 04:45:00,
2013-07-30 23:50:00,62.5,61.6,30.10,ESE,113,0.0,2.0,97,0.00,,,0.44,Wunderground v.1.15,2013-07-31 04:50:00,
2013-07-30 23:55:00,62.5,61.6,30.09,ESE,113,0.0,2.0,97,0.00,,,0.44,Wunderground v.1.15,2013-07-31 04:55:00,